Flag for U.S.A. Weather past 2 weeks in El Monte, California, U.S.A.

Now
69 °F

Clear.


Feels Like: 69 °F
Forecast: 66 / 92 °F
Wind: No wind

Location: Fullerton Municipal Airport

Current Time: Aug 4, 2015 at 3:23:36 AM

Latest Report: Aug 4, 2015 at 2:53 AM


Visibility: 10 mi

Pressure: 29.85 "Hg

Humidity: 73%

Dew point: 60 °F

Location of El MonteLocation

Historic Weather in El Monte — Graph

°F

El Monte temperature yesterday

Maximum temperature yesterday: 85 °F (at 2:53 PM)
Minimum temperature yesterday: 70 °F (at 2:03 AM)
Average temperature yesterday: 76 °F

Past Weeks' High & Low Weather Summary

 TemperatureHumidityPressure
High89 °F (Jul 25, 1:53 PM)90% (Jul 20, 9:53 PM)30.07 "Hg (Jul 20, 9:53 PM)
Low68 °F (Jul 27, 1:53 AM)30% (Jul 25, 12:53 PM)29.80 "Hg (Aug 2, 6:53 PM)
Average76 °F68%29.92 "Hg
* Reported Jul 20 1:53 AM — Aug 4 1:53 AM, El Monte, Weather by CustomWeather, © 2015

Note: Actual official high and low records may vary slightly from our data, if they occured in-between our weather recording intervals... More about our weather records

Advertising

El Monte weather history for previous 24 hours

 ConditionsComfort  
Time TempWeatherWind HumidityBarometerVisibility
1:53 AM
Tue, Aug 4
70 °FClear.No wind71%29.86 "Hg10 mi
12:53 AM71 °FClear.No wind68%29.87 "Hg10 mi
11:53 PM
Mon, Aug 3
73 °FClear.3 mph62%29.87 "Hg10 mi
10:53 PM74 °FClear.No wind60%29.86 "Hg10 mi
9:53 PM75 °FClear.No wind60%29.87 "Hg10 mi
8:53 PM75 °FClear.3 mph60%29.85 "Hg10 mi
7:53 PM77 °FSunny.5 mph62%29.84 "Hg10 mi
6:53 PM81 °FSunny.7 mph53%29.83 "Hg10 mi
5:53 PM85 °FSunny.8 mph51%29.83 "Hg10 mi
4:53 PM83 °FSunny.9 mph55%29.84 "Hg10 mi
3:53 PM84 °FSunny.9 mph53%29.84 "Hg10 mi
2:53 PM85 °FSunny.5 mph50%29.87 "Hg10 mi
1:53 PM83 °FSunny.8 mph53%29.88 "Hg10 mi
12:53 PM83 °FSunny.12 mph53%29.88 "Hg10 mi
11:53 AM83 °FSunny.No wind50%29.88 "Hg10 mi
10:53 AM80 °FSunny.No wind58%29.89 "Hg10 mi
9:53 AM77 °FSunny.5 mph64%29.90 "Hg10 mi
9:00 AM74 °FPartly sunny.3 mph71%29.90 "Hg9 mi
7:53 AM71 °FOvercast.No wind78%29.88 "Hg8 mi
6:53 AM70 °FOvercast.3 mph81%29.88 "Hg9 mi
5:53 AM70 °FOvercast.No wind81%29.88 "Hg10 mi
4:53 AM70 °FOvercast.No wind81%29.86 "Hg10 mi
3:53 AM70 °FOvercast.5 mph81%29.85 "Hg10 mi
Weather by CustomWeather, © 2015

See weather overviewHow to use our weather pages